This is the latest recevied weather packets stored in our database for station/object SR3WXA. If no packets are shown the sender has not sent any weather packets the latest 10 day(s).
| Time | Temp. | Humidity | Pressure | Rain* | Wind** | Luminosity | Snow |
|---|---|---|---|---|---|---|---|
| 1777490783 | 8.33° C | 50% | 1031.5 hPa | 0 mm | - | 0 W/m² | - |
| 1777490749 | 8.33° C | 50% | 1031.5 hPa | 0 mm | - | 0 W/m² | - |
| 1777490494 | 8.33° C | 50% | 1031.4 hPa | 0 mm | - | 0 W/m² | - |
| 1777490149 | 8.89° C | 49% | 1031.4 hPa | 0 mm | - | 0 W/m² | - |
| 1777489790 | 8.89° C | 47% | 1031.4 hPa | 0 mm | - | 0 W/m² | - |
| 1777489490 | 9.44° C | 46% | 1031.4 hPa | 0 mm | - | 0 W/m² | - |
| 1777488290 | 9.44° C | 42% | 1031.3 hPa | 0 mm | - | 0 W/m² | - |
| 1777487690 | 10° C | 41% | 1031.2 hPa | 0 mm | - | 0 W/m² | - |
| 1777487390 | 10° C | 41% | 1031 hPa | 0 mm | - | 0 W/m² | - |
| 1777487124 | 10° C | 41% | 1031 hPa | 0 mm | - | 0 W/m² | - |
| 1777486190 | 10.56° C | 40% | 1030.9 hPa | 0 mm | - | 7 W/m² | - |
| 1777484138 | 10.56° C | 39% | 1030.8 hPa | 0 mm | - | 44 W/m² | - |
| 1777483287 | 10.56° C | 39% | 1030.8 hPa | 0 mm | - | 69 W/m² | - |
| 1777480189 | 11.11° C | 37% | 1030.5 hPa | 0 mm | - | 204 W/m² | - |
| 1777473376 | 11.11° C | 36% | 1030.6 hPa | 0 mm | - | 174 W/m² | - |
| 1777472352 | 10.56° C | 36% | 1030.7 hPa | 0 mm | - | 113 W/m² | - |
| 1777472052 | 10.56° C | 36% | 1030.8 hPa | 0 mm | - | 158 W/m² | - |
| 1777469598 | 10.56° C | 39% | 1030.9 hPa | 0 mm | - | 123 W/m² | - |
| 1777469558 | 10.56° C | 39% | 1030.9 hPa | 0 mm | - | 123 W/m² | - |
| 1777469315 | 10.56° C | 39% | 1030.9 hPa | 0 mm | - | 128 W/m² | - |
| 1777469258 | 10.56° C | 39% | 1030.9 hPa | 0 mm | - | 128 W/m² | - |
| 1777468994 | 10.56° C | 38% | 1030.9 hPa | 0 mm | - | 185 W/m² | - |
| 1777468958 | 10.56° C | 38% | 1030.9 hPa | 0 mm | - | 185 W/m² | - |
| 1777468700 | 10.56° C | 39% | 1030.8 hPa | 0 mm | - | 795 W/m² | - |
| 1777468658 | 10.56° C | 39% | 1030.8 hPa | 0 mm | - | 795 W/m² | - |
* Rain latest hour (hover to see other rain measurements)
** Current wind speed in m/s (hover to see current wind gust speed)